When you browse on this site, cookies collect data to enhance your experience and personalize the content and advertising you see.
Visit our Privacy Policy to learn more. By continuing to use the site, you agree to this use of cookies and data.

Stündliche Wetter Ráquira

Heute, 19 September, Samstag

Zeit Temperatur Niederschläge Wind Luftdruck Luftfeuchtigkeit
00:00 +14°C° 1 mm 0 m/S 583 mmHg 97%
01:00 +14°C° 0 mm 0 m/S 583 mmHg 96%
02:00 +13°C° 0 mm 0 m/S 583 mmHg 96%
03:00 +13°C° 0 mm 0 m/S 583 mmHg 96%
04:00 +13°C° 0 mm 0 m/S 582 mmHg 96%
05:00 +13°C° 0 mm 0 m/S 583 mmHg 94%
06:00 +14°C° 0 mm 0 m/S 584 mmHg 93%
07:00 +14°C° 0 mm 0 m/S 584 mmHg 92%
08:00 +17°C° 0.3 mm 0 m/S 585 mmHg 85%
09:00 +19°C° 0.3 mm 0 m/S 586 mmHg 78%
10:00 +21°C° 0.3 mm 0 m/S 588 mmHg 70%
11:00 +23°C° 1.1 mm 1 m/S 587 mmHg 70%
12:00 +23°C° 1.1 mm 1 m/S 586 mmHg 70%
13:00 +23°C° 1.1 mm 1 m/S 585 mmHg 70%
14:00 +23°C° 1.9 mm 1 m/S 584 mmHg 75%
15:00 +22°C° 1.9 mm 1 m/S 584 mmHg 79%
16:00 +21°C° 1.9 mm 1 m/S 583 mmHg 83%
17:00 +19°C° 1.2 mm 1 m/S 583 mmHg 87%
18:00 +18°C° 1.2 mm 1 m/S 583 mmHg 91%
19:00 +16°C° 1.2 mm 1 m/S 583 mmHg 95%
20:00 +16°C° 0.3 mm 1 m/S 583 mmHg 96%
21:00 +15°C° 0.3 mm 1 m/S 583 mmHg 97%
22:00 +15°C° 0.3 mm 1 m/S 584 mmHg 97%
23:00 +15°C° 0.2 mm 1 m/S 583 mmHg 97%

Morgen, 20 September, Sonntag

Zeit Temperatur Niederschläge Wind Luftdruck Luftfeuchtigkeit
00:00 +15°C° 0.2 mm 1 m/S 583 mmHg 96%
01:00 +15°C° 0.2 mm 1 m/S 583 mmHg 96%
02:00 +15°C° 0.2 mm 1 m/S 583 mmHg 95%
03:00 +15°C° 0.2 mm 1 m/S 583 mmHg 95%
04:00 +15°C° 0.2 mm 1 m/S 583 mmHg 94%
05:00 +15°C° 0 mm 1 m/S 583 mmHg 93%
06:00 +15°C° 0 mm 1 m/S 584 mmHg 92%
07:00 +16°C° 0 mm 1 m/S 584 mmHg 91%
08:00 +18°C° 0.2 mm 1 m/S 585 mmHg 86%
09:00 +20°C° 0.2 mm 1 m/S 586 mmHg 81%
10:00 +21°C° 0.2 mm 1 m/S 587 mmHg 76%
11:00 +21°C° 1 mm 1 m/S 586 mmHg 77%
12:00 +21°C° 1 mm 1 m/S 585 mmHg 78%
13:00 +21°C° 1 mm 1 m/S 585 mmHg 79%
14:00 +21°C° 1.2 mm 1 m/S 584 mmHg 79%
15:00 +21°C° 1.2 mm 1 m/S 584 mmHg 80%
16:00 +20°C° 1.2 mm 2 m/S 583 mmHg 81%
17:00 +18°C° 0.4 mm 2 m/S 583 mmHg 86%
18:00 +17°C° 0.4 mm 2 m/S 583 mmHg 90%
19:00 +15°C° 0.4 mm 2 m/S 583 mmHg 94%
20:00 +15°C° 0.2 mm 1 m/S 583 mmHg 95%
21:00 +15°C° 0.2 mm 1 m/S 583 mmHg 95%
22:00 +15°C° 0.2 mm 1 m/S 584 mmHg 96%
23:00 +15°C° 0.1 mm 1 m/S 584 mmHg 96%

übermorgen, 21 September, Montag

Zeit Temperatur Niederschläge Wind Luftdruck Luftfeuchtigkeit
00:00 +15°C° 0.1 mm 1 m/S 583 mmHg 96%
01:00 +15°C° 0.1 mm 1 m/S 583 mmHg 96%
02:00 +15°C° 0.1 mm 1 m/S 583 mmHg 96%
03:00 +15°C° 0.1 mm 1 m/S 583 mmHg 96%
04:00 +14°C° 0.1 mm 1 m/S 582 mmHg 96%
05:00 +15°C° 0 mm 1 m/S 583 mmHg 95%
06:00 +15°C° 0 mm 1 m/S 583 mmHg 93%
07:00 +15°C° 0 mm 1 m/S 584 mmHg 92%
08:00 +17°C° 0 mm 2 m/S 585 mmHg 80%
09:00 +19°C° 0 mm 2 m/S 586 mmHg 69%
10:00 +21°C° 0 mm 3 m/S 587 mmHg 57%
11:00 +21°C° 0 mm 3 m/S 586 mmHg 56%
12:00 +21°C° 0 mm 4 m/S 585 mmHg 56%
13:00 +21°C° 0 mm 4 m/S 585 mmHg 56%
14:00 +21°C° 0 mm 4 m/S 584 mmHg 57%
15:00 +21°C° 0 mm 3 m/S 584 mmHg 58%
16:00 +20°C° 0 mm 3 m/S 583 mmHg 59%
17:00 +18°C° 0 mm 3 m/S 583 mmHg 69%
18:00 +16°C° 0 mm 2 m/S 582 mmHg 78%
19:00 +14°C° 0 mm 1 m/S 582 mmHg 88%
20:00 +14°C° 0 mm 1 m/S 582 mmHg 90%
21:00 +13°C° 0 mm 1 m/S 582 mmHg 92%
22:00 +13°C° 0 mm 1 m/S 583 mmHg 94%
23:00 +12°C° 0 mm 1 m/S 582 mmHg 92%

22 September, Dienstag

Zeit Temperatur Niederschläge Wind Luftdruck Luftfeuchtigkeit
00:00 +12°C° 0 mm 1 m/S 582 mmHg 90%
01:00 +12°C° 0 mm 1 m/S 582 mmHg 89%
02:00 +11°C° 0 mm 1 m/S 581 mmHg 83%
03:00 +11°C° 0 mm 1 m/S 581 mmHg 78%
04:00 +11°C° 0 mm 1 m/S 581 mmHg 73%
05:00 +12°C° 0 mm 1 m/S 582 mmHg 68%
06:00 +13°C° 0 mm 1 m/S 583 mmHg 64%
07:00 +14°C° 0 mm 1 m/S 584 mmHg 59%
08:00 +18°C° 0 mm 1 m/S 585 mmHg 51%
09:00 +20°C° 0 mm 1 m/S 586 mmHg 44%
10:00 +23°C° 0 mm 2 m/S 587 mmHg 37%
11:00 +24°C° 0 mm 2 m/S 587 mmHg 38%
12:00 +24°C° 0 mm 2 m/S 587 mmHg 39%
13:00 +25°C° 0 mm 2 m/S 586 mmHg 40%
14:00 +24°C° 0.1 mm 2 m/S 585 mmHg 46%
15:00 +23°C° 0.1 mm 2 m/S 585 mmHg 52%
16:00 +21°C° 0.1 mm 2 m/S 584 mmHg 58%
17:00 +19°C° 0.2 mm 2 m/S 583 mmHg 69%
18:00 +18°C° 0.2 mm 1 m/S 583 mmHg 80%
19:00 +14°C° 0.2 mm 1 m/S 582 mmHg 91%
20:00 +14°C° 0 mm 1 m/S 582 mmHg 92%
21:00 +13°C° 0 mm 1 m/S 582 mmHg 93%
22:00 +12°C° 0 mm 0 m/S 582 mmHg 93%
23:00 +12°C° 0 mm 0 m/S 582 mmHg 93%

23 September, Mittwoch

Zeit Temperatur Niederschläge Wind Luftdruck Luftfeuchtigkeit
00:00 +12°C° 0 mm 0 m/S 582 mmHg 93%
01:00 +12°C° 0 mm 0 m/S 582 mmHg 93%
02:00 +13°C° 0 mm 1 m/S 582 mmHg 93%
03:00 +12°C° 0 mm 1 m/S 582 mmHg 92%
04:00 +12°C° 0 mm 1 m/S 582 mmHg 92%
05:00 +13°C° 0 mm 1 m/S 583 mmHg 88%
06:00 +14°C° 0 mm 1 m/S 583 mmHg 84%
07:00 +15°C° 0 mm 1 m/S 584 mmHg 80%
08:00 +18°C° 0 mm 1 m/S 585 mmHg 69%
09:00 +21°C° 0 mm 1 m/S 586 mmHg 58%
10:00 +23°C° 0 mm 1 m/S 588 mmHg 47%
11:00 +24°C° 0 mm 2 m/S 587 mmHg 47%
12:00 +24°C° 0 mm 2 m/S 587 mmHg 47%
13:00 +25°C° 0 mm 2 m/S 586 mmHg 47%
14:00 +23°C° 0.4 mm 2 m/S 585 mmHg 57%
15:00 +21°C° 0.4 mm 2 m/S 585 mmHg 67%
16:00 +21°C° 0.4 mm 1 m/S 584 mmHg 76%
17:00 +19°C° 0.8 mm 1 m/S 584 mmHg 82%
18:00 +18°C° 0.8 mm 1 m/S 583 mmHg 88%
19:00 +16°C° 0.8 mm 1 m/S 583 mmHg 93%
20:00 +15°C° 0.4 mm 1 m/S 584 mmHg 94%
21:00 +15°C° 0.4 mm 1 m/S 584 mmHg 94%
22:00 +15°C° 0.4 mm 1 m/S 584 mmHg 95%
23:00 +15°C° 0 mm 1 m/S 584 mmHg 95%

24 September, Donnerstag

Zeit Temperatur Niederschläge Wind Luftdruck Luftfeuchtigkeit
00:00 +14°C° 0 mm 1 m/S 584 mmHg 95%
01:00 +14°C° 0 mm 1 m/S 583 mmHg 96%
02:00 +14°C° 0 mm 1 m/S 583 mmHg 96%
03:00 +13°C° 0 mm 1 m/S 583 mmHg 95%
04:00 +13°C° 0 mm 1 m/S 583 mmHg 95%
05:00 +14°C° 0 mm 1 m/S 583 mmHg 94%
06:00 +14°C° 0 mm 1 m/S 584 mmHg 93%
07:00 +15°C° 0 mm 1 m/S 584 mmHg 91%
08:00 +16°C° 0.1 mm 1 m/S 585 mmHg 84%
09:00 +19°C° 0.1 mm 1 m/S 586 mmHg 77%
10:00 +21°C° 0.1 mm 1 m/S 587 mmHg 70%
11:00 +20°C° 0.3 mm 2 m/S 586 mmHg 68%
12:00 +21°C° 0.3 mm 2 m/S 586 mmHg 67%
13:00 +21°C° 0.3 mm 2 m/S 586 mmHg 65%
14:00 +21°C° 0.5 mm 2 m/S 585 mmHg 68%
15:00 +20°C° 0.5 mm 2 m/S 584 mmHg 71%
16:00 +20°C° 0.5 mm 2 m/S 584 mmHg 73%
17:00 +18°C° 0.5 mm 2 m/S 583 mmHg 80%
18:00 +16°C° 0.5 mm 1 m/S 583 mmHg 87%
19:00 +15°C° 0.5 mm 1 m/S 583 mmHg 93%
20:00 +14°C° 0.1 mm 1 m/S 583 mmHg 94%
21:00 +14°C° 0.1 mm 1 m/S 584 mmHg 95%
22:00 +13°C° 0.1 mm 1 m/S 584 mmHg 96%
23:00 +13°C° 0.1 mm 1 m/S 584 mmHg 95%
Mehr zeigen